Location: Hohe Wand Kleine Kanzel
(47.8330°N, 16.0170°E)
Time: 15:20:37
(UTC+02:00)

A-11 Canister half - All Passes

Search period start: 02 August 2021 00:00
Search period end: 12 August 2021 00:00
Orbit: 1527 x 1682 km, 47.3° (Epoch: 01 August)

Date Brightness Start Highest point End Pass type
(mag) Time Alt. Az. Time Alt. Az. Time Alt. Az.
02 Aug - 09:49:51 10° SSE 09:56:20 19° SE 10:02:49 10° E daylight
02 Aug - 11:50:03 10° SW 11:59:45 53° SSE 12:09:20 10° ENE daylight
02 Aug - 13:54:19 10° WSW 14:04:30 85° S 14:14:26 10° E daylight
02 Aug - 15:59:38 10° W 16:09:43 81° SSW 16:19:27 10° ESE daylight
02 Aug - 18:04:57 10° WNW 18:14:08 45° SW 18:23:03 10° SSE daylight
02 Aug - 20:12:51 10° W 20:17:05 14° WSW 20:21:17 10° SSW daylight
03 Aug - 09:28:34 10° SSE 09:34:46 18° SE 09:40:56 10° E daylight
03 Aug - 11:28:28 10° SW 11:38:06 51° SE 11:47:39 10° ENE daylight
03 Aug - 13:32:36 10° WSW 13:42:48 84° SSE 13:52:45 10° E daylight
03 Aug - 15:37:55 10° W 15:48:02 82° SSW 15:57:48 10° ESE daylight
03 Aug - 17:43:13 10° WNW 17:52:31 47° SW 18:01:30 10° SSE daylight
03 Aug - 19:50:45 10° W 19:55:32 15° WSW 20:00:16 10° SSW daylight
04 Aug - 09:07:21 10° SSE 09:13:11 17° SE 09:19:00 10° E daylight
04 Aug - 11:06:52 10° SW 11:16:27 50° SE 11:25:58 10° ENE daylight
04 Aug - 13:10:55 10° WSW 13:21:06 83° SSE 13:31:05 10° E daylight
04 Aug - 15:16:13 10° W 15:26:21 83° SSW 15:36:10 10° ESE daylight
04 Aug - 17:21:31 10° WNW 17:30:54 49° SW 17:39:59 10° SE daylight
04 Aug - 19:28:43 10° W 19:33:59 16° SW 19:39:11 10° SSW daylight
05 Aug - 08:46:10 10° SSE 08:51:37 16° SE 08:57:02 10° E daylight
05 Aug - 10:45:17 10° SSW 10:54:49 48° SE 11:04:16 10° ENE daylight
05 Aug - 12:49:13 10° WSW 12:59:24 82° SSE 13:09:24 10° E daylight
05 Aug - 14:54:30 10° W 15:04:39 84° S 15:14:30 10° ESE daylight
05 Aug - 16:59:47 10° WNW 17:09:15 50° SW 17:18:26 10° SE daylight
05 Aug - 19:06:45 10° W 19:12:26 17° SW 19:18:02 10° SSW daylight
06 Aug - 08:25:03 10° SSE 08:30:02 15° ESE 08:35:01 10° E daylight
06 Aug - 10:23:43 10° SSW 10:33:10 46° SE 10:42:34 10° ENE daylight
06 Aug - 12:27:31 10° WSW 12:37:43 81° SSE 12:47:44 10° E daylight
06 Aug - 14:32:47 10° W 14:42:57 84° S 14:52:50 10° ESE daylight
06 Aug - 16:38:04 10° WNW 16:47:38 52° SSW 16:56:53 10° SE daylight
06 Aug - 18:44:49 10° W 18:50:52 18° SW 18:56:50 10° SSW daylight
07 Aug - 08:04:01 10° SSE 08:08:29 14° ESE 08:12:56 10° E daylight
07 Aug - 10:02:09 10° SSW 10:11:31 44° SE 10:20:51 10° ENE daylight
07 Aug - 12:05:50 10° WSW 12:16:01 80° SSE 12:26:03 10° E daylight
07 Aug - 14:11:05 10° W 14:21:16 85° S 14:31:11 10° ESE daylight
07 Aug - 16:16:22 10° WNW 16:25:59 54° SSW 16:35:19 10° SE daylight
07 Aug - 18:22:54 10° W 18:29:18 20° SW 18:35:35 10° SSW daylight
08 Aug - 07:43:04 10° SE 07:46:55 13° ESE 07:50:45 10° E daylight
08 Aug - 09:40:37 10° SSW 09:49:53 43° SE 09:59:08 10° ENE daylight
08 Aug - 11:44:09 10° WSW 11:54:19 79° SSE 12:04:22 10° E daylight
08 Aug - 13:49:22 10° W 13:59:34 86° S 14:09:31 10° ESE daylight
08 Aug - 15:54:38 10° WNW 16:04:21 56° SSW 16:13:45 10° SE daylight
08 Aug - 18:01:02 10° W 18:07:44 21° SW 18:14:20 10° S daylight
09 Aug - 07:22:18 10° SE 07:25:21 12° ESE 07:28:25 10° ESE daylight
09 Aug - 09:19:04 10° SSW 09:28:15 41° SE 09:37:26 10° ENE daylight
09 Aug - 11:22:28 10° WSW 11:32:37 78° SSE 11:42:41 10° E daylight
09 Aug - 13:27:39 10° W 13:37:52 86° S 13:47:50 10° E daylight
09 Aug - 15:32:55 10° WNW 15:42:42 58° SSW 15:52:11 10° SE daylight
09 Aug - 17:39:10 10° W 17:46:10 22° SW 17:53:02 10° S daylight
10 Aug - 07:01:52 10° SE 07:03:48 11° ESE 07:05:44 10° ESE daylight
10 Aug - 08:57:32 10° SSW 09:06:37 40° SE 09:15:43 10° ENE daylight
10 Aug - 11:00:48 10° WSW 11:10:56 76° SSE 11:21:01 10° ENE daylight
10 Aug - 13:05:57 10° W 13:16:10 87° S 13:26:11 10° E daylight
10 Aug - 15:11:13 10° WNW 15:21:03 59° SSW 15:30:36 10° SE daylight
10 Aug - 17:17:19 10° W 17:24:35 24° SW 17:31:42 10° S daylight
11 Aug - 08:36:02 10° SSW 08:44:59 38° SE 08:53:59 10° ENE daylight
11 Aug - 10:39:07 10° WSW 10:49:15 75° SSE 10:59:19 10° ENE daylight
11 Aug - 12:44:14 10° W 12:54:28 87° S 13:04:30 10° E daylight
11 Aug - 14:49:30 10° WNW 14:59:24 61° SSW 15:09:00 10° SE daylight
11 Aug - 16:55:30 10° W 17:03:01 25° SW 17:10:22 10° S daylight
